Temp
85 96 103 102 85 89 80 81 90 85 85 92 93 88 83 86 80 71 94 97 98 97 94 90 81 81 80 80 80 79 79 79 79 80 80 80 80 80 80 79 79 80 80 81 81 81 81 81 81
105 105 103 98 82 76 78 87 83 87 90 93 91 89 83 78 90 90 91 95 97 97 95 92 80 80 80 80 79 79 79 79 80 80 80 80 80 80 80 79 79 80 80 80 81 81 81 81 81
98 106 95 91 85 77 78 87 88 91 94 92 88 90 84 82 89 90 95 97 98 99 99 87 80 80 80 80 80 79 79 79 80 80 80 80 80 79 79 79 79 80 80 80 80 80 80 80 80
103 103 100 87 80 84 86 89 92 90 93 93 90 81 86 91 89 94 96 98 100 97 89 83 79 79 80 80 80 80 79 80 80 79 80 80 79 79 78 78 78 78 79 79 80 80 79 79 80
104 100 90 83 81 87 91 93 94 90 90 90 89 80 81 90 95 95 94 97 96 97 96 94 79 78 78 79 79 79 79 80 80 78 78 78 78 77 77 77 77 78 78 78 78 78 78 78 78
96 96 66 80 81 87 91 93 91 90 90 89 87 83 83 94 94 95 96 95 97 97 98 96 81 79 80 79 79 79 79 78 78 77 77 77 77 77 77 77 76 76 76 76 76 76 76 76 77
97 90 85 82 82 81 88 93 87 85 86 87 84 81 86 91 93 96 96 97 98 98 98 97 97 85 79 78 77 77 77 76 76 76 76 77 77 77 77 77 75 75 75 75 75 75 75 75 76
101 89 86 84 77 82 90 90 91 88 85 94 93 65 79 89 94 97 98 96 95 95 96 96 96 97 96 88 77 76 77 76 76 77 78 78 78 80 79 78 76 76 76 75 76 76 76 76 76
106 82 80 83 75 85 90 87 91 94 87 88 89 88 89 92 94 94 94 93 91 92 92 93 92 93 95 94 84 78 78 79 79 81 80 83 86 84 84 77 77 77 76 77 77 77 77 76 77
97 88 87 94 92 88 90 88 87 85 82 81 81 88 90 91 91 87 87 87 86 87 90 91 88 88 93 92 89 89 88 85 82 82 81 85 84 82 83 82 78 79 77 79 78 79 78 80 87
97 88 93 93 94 95 89 87 90 83 78 83 81 84 87 87 87 87 87 87 88 88 87 88 86 86 87 88 88 87 86 85 84 80 79 81 83 82 84 84 84 82 81 82 83 83 83 83 84
90 94 94 93 94 92 88 91 82 86 83 87 86 87 87 86 85 86 86 86 86 86 85 87 85 83 83 86 86 86 84 84 83 81 78 78 81 79 80 81 82 81 82 80 80 82 80 81 81
92 91 93 93 93 91 90 85 82 79 84 86 86 86 86 85 86 87 87 86 85 83 83 84 83 81 81 81 84 83 83 82 82 81 79 79 79 76 80 80 81 81 81 81 80 81 79 80 82
94 93 92 93 91 90 86 83 83 80 84 83 85 85 86 85 85 86 86 84 81 80 81 82 82 80 82 80 80 81 82 83 83 82 79 78 78 76 78 79 79 79 79 80 79 79 79 79 81
94 87 89 90 91 87 89 80 78 82 84 84 84 84 85 86 86 83 83 81 82 80 79 79 81 80 78 79 80 81 81 83 81 81 79 78 78 76 74 79 78 77 79 80 79 79 79 79 81
90 82 60 88 89 88 87 72 78 83 84 82 83 84 84 85 86 85 83 81 81 80 78 78 80 80 78 78 79 81 80 81 81 81 81 78 78 76 75 78 76 76 79 79 77 76 77 77 78
84 79 83 83 90 87 86 78 81 86 86 84 84 83 85 84 84 83 84 85 82 80 78 77 77 77 78 78 80 80 79 81 81 81 80 76 78 77 75 77 76 75 78 76 72 72 73 74 76
79 83 86 82 87 85 85 81 83 84 85 84 86 85 86 85 85 84 84 84 83 81 79 78 78 75 78 80 81 82 81 81 81 80 78 76 78 76 74 77 75 74 76 72 69 67 72 73 74
89 86 83 86 87 84 84 83 84 85 84 83 83 86 86 86 89 86 85 84 82 80 79 77 76 75 77 79 78 78 78 79 80 80 78 76 76 76 74 75 74 73 74 69 68 67 68 70 70
88 85 82 85 86 84 83 83 86 86 84 85 85 86 87 87 88 85 85 84 82 79 78 77 76 74 76 78 77 77 77 79 80 80 78 77 75 75 74 71 72 70 72 69 66 65 64 70 70
88 84 83 82 85 86 84 80 82 85 87 88 88 88 90 86 85 86 85 84 85 80 78 77 75 74 74 74 78 78 80 79 78 78 78 77 75 74 73 72 71 69 71 69 64 65 61 62 67
70 90 86 83 80 76 85 73 79 81 81 84 87 89 89 89 88 86 87 85 84 83 81 79 76 75 76 74 76 72 74 74 76 77 77 77 76 74 74 72 72 70 72 65 63 63 62 58 56
85 91 87 85 82 80 79 77 77 83 79 82 86 88 90 92 91 88 90 88 87 85 84 81 76 75 74 74 73 74 73 76 78 76 74 75 76 76 74 73 71 70 72 66 63 62 60 61 60
91 87 85 85 76 65 77 76 77 80 82 86 89 90 90 92 93 91 92 90 87 87 85 82 78 75 75 75 74 72 71 70 72 72 74 75 77 76 72 72 71 70 69 69 65 64 63 63 62
89 83 65 67 57 68 79 77 79 86 88 88 89 90 91 92 93 88 87 89 86 85 83 84 79 76 75 75 75 73 72 71 72 72 74 72 75 74 70 70 70 70 69 70 67 67 63 62 61
85 82 72 61 66 73 72 73 80 89 91 91 92 94 94 93 94 90 88 90 88 85 83 82 80 77 77 76 75 75 74 76 76 74 73 74 74 74 72 71 71 70 70 70 68 71 68 63 65
82 78 87 75 79 70 74 82 86 89 88 89 89 91 91 92 92 92 93 90 89 85 83 82 80 79 77 76 76 74 74 73 73 71 71 73 74 74 73 72 71 71 71 69 68 70 68 67 64
88 92 77 76 63 62 72 73 73 82 85 87 87 88 91 91 92 93 92 88 87 86 84 83 83 81 79 78 77 77 75 75 74 74 70 69 71 72 72 72 71 71 70 68 68 65 66 66 67
84 80 71 80 77 67 63 73 86 85 87 86 88 91 91 92 93 92 92 89 87 87 87 84 83 82 80 79 78 76 75 75 75 74 73 70 69 69 72 72 71 71 70 69 67 68 65 65 64
90 84 83 74 70 75 74 73 88 90 90 89 89 91 94 94 94 94 92 89 86 86 86 85 82 83 83 81 79 76 76 75 74 73 74 71 69 70 70 73 72 72 72 70 67 64 67 66 65
MSLP
1010.69 1009.90 1008.58 1007.12 1005.66 1004.17 1005.19 1006.32 1006.51 1007.15 1008.21 1008.90 1009.28 1010.02 1011.14 1011.50 1011.51 1013.24 1015.01 1015.01 1014.85 1015.28 1016.22 1017.05 1017.95 1018.02 1018.09 1018.18 1018.16 1018.15 1018.09 1017.97 1017.88 1017.78 1017.66 1017.52 1017.39 1017.31 1017.18 1017.08 1016.97 1016.83 1016.65 1016.51 1016.37 1016.30 1016.19 1016.09 1015.99
1008.57 1008.02 1007.61 1005.34 1004.02 1004.37 1005.91 1006.84 1007.38 1008.29 1009.02 1009.56 1010.09 1010.97 1012.04 1012.87 1013.23 1013.95 1014.95 1015.43 1015.27 1015.46 1016.11 1016.79 1017.97 1018.12 1018.11 1018.17 1018.11 1018.10 1018.07 1018.05 1017.98 1017.87 1017.77 1017.60 1017.46 1017.32 1017.18 1017.07 1016.94 1016.77 1016.58 1016.38 1016.17 1016.02 1015.93 1015.88 1015.83
1009.19 1007.45 1006.31 1003.99 1004.12 1004.95 1006.13 1007.19 1007.87 1008.48 1008.86 1009.70 1010.57 1011.64 1012.86 1013.63 1014.30 1014.76 1015.46 1015.36 1015.13 1014.80 1015.16 1017.37 1018.05 1018.18 1018.15 1018.20 1018.14 1018.10 1018.10 1018.06 1017.93 1017.83 1017.68 1017.59 1017.51 1017.43 1017.30 1017.08 1016.86 1016.66 1016.47 1016.31 1016.12 1015.96 1015.79 1015.58 1015.52
1007.67 1006.02 1004.43 1003.61 1005.08 1006.26 1006.72 1007.39 1007.75 1008.45 1009.32 1010.25 1011.22 1012.66 1014.29 1014.68 1014.88 1015.32 1015.56 1015.06 1014.64 1014.82 1016.05 1017.25 1017.87 1018.08 1018.09 1018.23 1018.19 1018.15 1018.15 1018.15 1018.01 1017.89 1017.68 1017.53 1017.48 1017.47 1017.33 1017.19 1017.05 1016.83 1016.57 1016.30 1016.04 1015.77 1015.70 1015.55 1015.32
1007.06 1005.24 1003.51 1004.63 1005.99 1006.81 1007.33 1007.59 1007.87 1008.60 1009.34 1010.28 1011.68 1013.20 1014.30 1015.21 1015.48 1015.72 1015.90 1015.53 1015.15 1015.24 1015.36 1016.36 1017.42 1017.65 1017.86 1018.06 1018.09 1018.10 1018.06 1018.07 1018.05 1018.04 1017.90 1017.73 1017.68 1017.59 1017.50 1017.38 1017.14 1016.94 1016.75 1016.45 1016.10 1015.88 1015.66 1015.50 1015.33
1005.52 1004.65 1006.19 1004.87 1006.36 1007.28 1007.91 1008.37 1008.57 1009.29 1010.11 1010.97 1011.90 1013.04 1014.32 1015.10 1015.34 1015.72 1015.87 1015.94 1015.86 1015.58 1015.47 1016.18 1016.97 1017.17 1017.50 1017.64 1017.91 1018.08 1018.02 1018.07 1018.12 1018.22 1018.16 1018.10 1017.91 1017.81 1017.62 1017.44 1017.39 1017.14 1016.98 1016.72 1016.38 1016.07 1015.67 1015.29 1015.07
1004.41 1003.68 1004.20 1005.69 1006.75 1007.58 1008.42 1009.19 1009.73 1010.33 1010.75 1011.24 1012.78 1012.45 1013.91 1014.73 1015.76 1015.77 1015.94 1015.98 1015.83 1015.87 1015.87 1015.78 1015.98 1016.74 1017.59 1017.84 1017.87 1018.32 1018.40 1018.36 1018.32 1018.28 1018.16 1018.14 1017.89 1017.76 1017.62 1017.54 1017.46 1017.29 1017.03 1016.77 1016.53 1016.22 1015.85 1015.23 1014.83
1004.87 1005.70 1004.64 1006.44 1008.01 1007.53 1009.02 1009.71 1010.49 1010.89 1011.91 1012.45 1012.56 1012.13 1013.76 1015.37 1015.55 1015.60 1015.86 1016.40 1016.64 1016.79 1016.70 1016.60 1016.49 1016.43 1015.98 1017.10 1018.16 1018.68 1018.66 1018.60 1018.63 1018.43 1018.21 1017.97 1017.71 1017.33 1017.35 1017.12 1017.39 1017.29 1017.05 1016.70 1016.35 1016.05 1015.70 1015.15 1014.66
1005.12 1005.50 1005.40 1006.46 1007.85 1008.03 1009.43 1010.33 1011.72 1012.29 1012.76 1013.59 1013.78 1014.15 1015.23 1015.80 1015.85 1015.95 1016.12 1016.84 1017.36 1017.44 1017.36 1017.36 1017.46 1017.10 1016.25 1016.42 1017.76 1018.31 1018.36 1018.36 1018.36 1018.11 1018.09 1017.20 1017.19 1017.24 1017.08 1017.22 1017.33 1017.10 1016.90 1016.39 1016.11 1015.78 1015.30 1014.87 1013.99
1004.78 1004.01 1005.59 1006.84 1007.48 1008.20 1009.33 1010.46 1011.99 1012.89 1013.92 1014.55 1015.15 1015.73 1016.09 1016.28 1016.42 1016.90 1017.23 1017.39 1017.81 1017.82 1017.77 1017.83 1018.27 1017.89 1016.90 1016.95 1017.52 1017.54 1017.83 1018.45 1018.76 1018.79 1018.39 1017.75 1017.54 1017.53 1017.14 1016.76 1017.01 1016.68 1016.55 1016.07 1015.82 1015.32 1014.76 1014.19 1013.26
1005.50 1005.64 1006.85 1007.82 1008.51 1008.63 1010.27 1010.98 1012.22 1013.33 1013.74 1014.43 1015.02 1015.84 1016.38 1016.81 1017.12 1017.43 1017.58 1017.94 1017.96 1018.31 1018.45 1018.49 1018.61 1018.54 1018.10 1017.82 1017.79 1018.07 1018.22 1018.29 1018.44 1018.86 1018.94 1018.41 1017.77 1017.66 1017.11 1016.76 1016.47 1016.40 1016.09 1015.91 1015.54 1015.03 1014.84 1014.69 1013.98
1006.40 1007.24 1007.91 1008.60 1009.22 1009.38 1010.40 1011.29 1012.86 1013.24 1014.69 1015.25 1015.82 1016.32 1016.68 1017.04 1017.58 1017.82 1017.87 1018.28 1018.56 1018.76 1019.03 1019.00 1019.11 1019.10 1019.12 1018.44 1018.40 1018.40 1018.60 1018.73 1018.75 1018.92 1019.27 1018.74 1018.02 1018.05 1017.65 1017.32 1016.82 1016.54 1016.22 1016.02 1015.65 1015.18 1015.19 1014.80 1014.44
1007.01 1008.06 1008.60 1009.28 1009.91 1010.56 1011.34 1012.41 1013.71 1015.11 1015.79 1016.29 1016.63 1016.83 1016.88 1017.44 1017.72 1018.12 1018.40 1018.93 1019.35 1019.38 1019.57 1019.56 1019.75 1019.87 1019.80 1019.44 1019.08 1019.12 1019.00 1019.12 1019.02 1019.06 1019.40 1019.24 1018.63 1018.72 1017.95 1017.49 1017.09 1016.81 1016.54 1016.08 1015.67 1015.23 1015.15 1014.72 1014.10
1007.61 1008.21 1008.77 1009.34 1010.15 1011.03 1011.66 1013.27 1014.17 1015.69 1016.14 1016.45 1016.45 1016.63 1016.91 1017.50 1017.91 1018.10 1018.54 1019.17 1019.76 1020.18 1020.21 1020.24 1020.23 1020.38 1019.99 1020.03 1019.88 1019.41 1019.32 1019.17 1019.07 1019.15 1019.74 1019.47 1019.16 1019.15 1018.38 1017.55 1017.33 1017.16 1016.91 1016.46 1015.98 1015.61 1015.18 1014.68 1014.14
1008.20 1009.04 1009.89 1009.64 1009.90 1010.97 1011.81 1012.67 1014.00 1015.62 1016.10 1015.88 1016.11 1016.69 1017.12 1017.54 1018.03 1018.60 1019.27 1019.81 1020.16 1020.53 1020.96 1020.79 1020.41 1020.76 1020.69 1020.33 1019.93 1019.60 1019.64 1019.31 1019.37 1019.37 1019.65 1019.67 1019.49 1019.27 1019.00 1017.87 1017.70 1017.73 1017.07 1016.46 1016.11 1015.67 1015.09 1014.56 1014.12
1007.76 1009.12 1009.94 1009.34 1009.83 1010.84 1011.11 1011.98 1014.32 1015.38 1015.44 1015.54 1015.94 1016.58 1016.99 1017.49 1017.85 1018.71 1019.48 1020.02 1020.50 1020.78 1021.08 1021.25 1021.09 1020.80 1020.85 1020.79 1020.43 1019.99 1020.10 1019.63 1019.65 1019.59 1019.59 1020.08 1019.63 1019.56 1019.13 1018.21 1018.17 1018.20 1017.06 1016.58 1016.66 1016.21 1015.43 1014.85 1014.16
1007.46 1006.63 1006.68 1007.94 1009.24 1009.77 1010.38 1010.83 1013.29 1014.42 1014.33 1014.64 1015.26 1015.92 1016.25 1017.22 1017.89 1018.76 1019.22 1019.55 1020.32 1020.91 1021.11 1021.22 1021.26 1021.19 1021.02 1020.90 1020.54 1020.21 1020.35 1019.97 1019.88 1019.81 1020.01 1020.41 1019.80 1019.76 1019.48 1018.52 1018.51 1018.22 1017.22 1017.36 1017.92 1017.35 1016.42 1015.15 1014.40
1006.42 1005.67 1005.97 1006.88 1008.34 1009.63 1009.24 1010.22 1012.26 1013.43 1013.71 1013.91 1014.22 1014.99 1015.36 1016.28 1016.96 1018.38 1018.93 1019.45 1020.16 1020.73 1021.03 1021.17 1021.27 1021.36 1020.84 1020.42 1019.90 1019.85 1019.90 1020.01 1019.96 1019.87 1020.49 1020.58 1020.15 1020.04 1019.76 1018.85 1018.80 1018.48 1017.66 1018.20 1018.61 1018.01 1016.86 1015.81 1015.13
1005.85 1005.75 1005.99 1007.23 1008.62 1008.87 1008.65 1009.28 1010.60 1012.29 1013.21 1013.55 1014.03 1014.09 1014.76 1015.24 1016.03 1017.88 1018.61 1019.20 1019.88 1020.39 1020.84 1021.19 1021.34 1021.32 1020.77 1020.33 1020.19 1020.05 1020.00 1020.08 1019.87 1020.14 1020.61 1020.66 1020.49 1020.21 1019.90 1019.44 1018.98 1018.96 1018.17 1018.64 1018.71 1018.44 1017.44 1016.37 1016.30
1005.44 1005.17 1006.16 1007.25 1008.22 1008.63 1008.28 1008.63 1009.39 1010.86 1011.93 1012.66 1013.24 1013.48 1013.68 1014.47 1015.36 1017.21 1018.08 1018.70 1019.25 1020.12 1020.63 1021.03 1021.34 1021.51 1021.06 1020.59 1020.65 1020.80 1020.58 1020.15 1020.08 1020.07 1020.33 1020.53 1020.62 1020.47 1020.20 1020.06 1019.62 1019.64 1018.67 1018.64 1019.03 1018.83 1018.21 1016.91 1016.53
1005.37 1005.61 1006.19 1006.95 1007.65 1008.28 1007.92 1007.63 1008.72 1010.15 1011.02 1011.57 1012.15 1012.65 1013.11 1013.76 1014.62 1015.76 1017.20 1018.06 1018.55 1019.51 1020.30 1020.87 1021.24 1021.38 1021.45 1021.33 1020.58 1020.48 1019.85 1019.85 1019.88 1019.96 1020.12 1020.33 1020.57 1020.52 1020.41 1020.22 1020.09 1020.08 1018.93 1019.28 1019.50 1019.24 1018.94 1018.22 1017.43
1007.88 1006.37 1006.65 1007.01 1007.25 1006.56 1007.59 1006.48 1007.73 1009.30 1010.29 1010.93 1011.38 1011.81 1012.31 1012.87 1013.87 1014.84 1015.92 1017.14 1018.00 1018.72 1019.81 1020.40 1021.10 1021.33 1021.26 1021.32 1020.90 1021.15 1020.41 1020.08 1020.20 1020.02 1020.33 1020.20 1020.43 1020.44 1020.32 1020.23 1020.10 1019.84 1019.14 1019.74 1019.88 1019.80 1019.47 1019.35 1018.68
1006.21 1006.56 1006.66 1006.96 1006.88 1006.59 1006.89 1006.35 1007.12 1008.18 1008.92 1009.72 1010.43 1010.97 1011.55 1012.09 1012.74 1013.80 1014.61 1015.84 1017.12 1018.25 1018.97 1019.99 1020.86 1021.21 1021.43 1021.46 1021.49 1021.02 1020.91 1020.51 1020.19 1020.36 1020.32 1020.08 1019.90 1020.07 1020.43 1020.21 1020.08 1019.95 1019.41 1019.82 1020.00 1019.88 1019.68 1019.28 1018.95
1006.65 1006.72 1007.37 1007.33 1007.97 1006.45 1006.59 1006.51 1005.64 1006.70 1007.49 1007.59 1008.60 1009.94 1010.87 1011.64 1012.04 1013.15 1014.11 1015.24 1016.66 1017.74 1018.44 1019.44 1020.26 1020.80 1021.14 1021.35 1021.42 1021.43 1021.34 1021.24 1020.85 1020.76 1020.08 1020.04 1019.73 1019.81 1020.57 1020.37 1020.18 1019.98 1019.90 1019.62 1019.83 1019.69 1019.39 1019.13 1018.93
1006.56 1006.31 1006.74 1007.26 1008.70 1006.23 1006.32 1006.03 1005.81 1006.54 1007.04 1007.51 1007.47 1008.56 1009.92 1010.98 1011.53 1012.76 1013.74 1014.84 1016.29 1017.26 1018.26 1018.78 1019.76 1020.32 1020.75 1020.98 1021.18 1021.33 1021.42 1021.36 1020.74 1020.64 1020.23 1020.43 1019.91 1019.97 1020.57 1020.52 1020.32 1020.05 1019.97 1019.58 1019.47 1019.27 1019.31 1019.15 1018.81
1005.80 1006.44 1006.95 1006.78 1006.20 1005.72 1007.91 1005.75 1005.45 1006.56 1007.01 1007.47 1007.76 1007.84 1008.82 1009.94 1010.72 1012.06 1013.05 1014.16 1015.61 1016.72 1017.86 1018.51 1019.15 1019.84 1020.25 1020.62 1020.86 1021.17 1021.40 1020.89 1020.57 1020.63 1020.96 1020.38 1020.32 1020.14 1020.48 1020.47 1020.29 1020.10 1019.78 1019.58 1019.32 1018.58 1018.90 1019.15 1018.59
1005.85 1006.34 1006.77 1007.17 1006.36 1006.43 1006.16 1005.05 1005.47 1006.07 1006.47 1007.21 1007.71 1008.05 1008.40 1009.28 1010.38 1011.19 1012.19 1013.88 1014.97 1016.33 1017.35 1018.06 1018.52 1019.12 1019.86 1020.23 1020.71 1020.85 1020.98 1021.13 1020.92 1021.13 1021.16 1020.41 1020.43 1020.39 1020.31 1020.37 1020.31 1020.02 1019.64 1019.52 1019.15 1018.74 1018.72 1018.70 1018.49
1006.48 1006.59 1006.54 1006.75 1006.58 1006.07 1005.55 1005.09 1005.77 1005.61 1005.81 1006.70 1007.53 1008.02 1008.48 1009.42 1010.36 1010.89 1012.10 1013.76 1014.99 1016.02 1016.98 1017.79 1018.23 1018.68 1019.31 1019.68 1019.98 1020.25 1020.67 1020.70 1020.73 1020.65 1020.89 1020.88 1020.54 1020.40 1020.31 1020.22 1020.17 1019.92 1019.54 1019.42 1019.25 1019.03 1018.71 1018.37 1018.14
1006.44 1007.20 1008.20 1007.80 1007.26 1006.51 1006.35 1005.10 1005.42 1006.00 1005.95 1006.33 1007.00 1007.42 1008.29 1009.09 1009.73 1010.54 1011.98 1013.63 1014.89 1015.62 1016.27 1017.20 1017.74 1018.16 1018.70 1019.44 1019.64 1019.93 1020.25 1020.36 1020.52 1020.47 1020.27 1020.59 1020.47 1020.28 1019.92 1019.92 1019.89 1019.66 1019.25 1019.03 1019.06 1018.74 1018.50 1018.21 1017.88
1006.38 1006.51 1006.61 1006.95 1006.81 1006.63 1006.44 1005.42 1005.90 1006.01 1005.95 1006.29 1006.79 1007.14 1007.73 1008.36 1009.21 1010.10 1011.55 1013.31 1014.57 1015.19 1015.78 1016.47 1017.31 1017.55 1017.81 1018.49 1019.14 1019.52 1019.84 1019.98 1020.05 1020.13 1020.10 1020.01 1020.08 1019.80 1019.75 1019.46 1019.43 1019.18 1018.86 1018.70 1018.63 1018.47 1018.09 1017.78 1017.49
Wind_Speed
12 14 13 9 8 10 17 18 15 17 16 15 19 20 21 20 16 9 7 7 8 10 13 11 6 3 2 1 1 2 3 4 5 6 7 8 8 8 8 8 9 9 10 11 11 11 10 9 8
13 9 8 9 2 13 13 13 15 15 16 15 17 19 19 19 18 14 13 7 6 7 6 11 5 2 1 1 1 3 4 5 6 6 7 8 8 8 9 9 10 10 11 11 12 12 12 11 10
18 12 11 8 11 14 13 14 14 12 11 12 13 15 9 13 14 9 8 5 5 6 13 10 4 1 1 2 2 2 3 4 4 5 6 7 7 8 9 10 11 11 12 12 13 13 13 13 13
8 9 10 13 17 14 13 11 13 16 15 16 18 14 11 9 7 11 6 4 7 9 16 14 5 1 1 3 3 2 3 4 6 5 6 7 7 8 9 10 11 13 13 14 13 13 14 15 15
12 10 4 15 15 13 12 10 13 13 15 17 19 17 15 12 10 9 6 6 6 9 9 15 9 6 3 1 4 5 4 4 5 6 7 7 7 8 10 10 12 13 14 14 14 14 14 15 16
11 6 9 16 16 10 10 9 13 15 13 16 18 16 14 11 11 8 7 6 6 7 7 8 14 11 7 9 8 9 7 7 8 8 9 8 8 9 10 11 13 14 14 15 14 13 14 15 15
17 5 16 9 16 15 11 11 13 14 13 13 12 17 14 14 9 9 7 7 10 13 12 11 11 14 15 15 16 11 11 11 10 8 5 4 5 5 6 9 14 14 14 15 12 12 13 15 15
13 15 12 8 12 18 11 10 10 10 12 7 11 5 14 12 3 7 11 13 11 12 12 13 11 12 1 16 16 10 11 9 7 7 5 4 7 5 3 7 13 13 14 14 12 13 14 14 16
13 6 12 16 14 16 9 15 14 13 16 16 17 18 15 7 8 7 9 11 11 10 11 11 13 11 8 8 11 14 12 7 4 3 9 8 8 10 12 9 8 10 12 11 11 11 12 15 18
12 11 18 14 13 10 9 15 9 14 14 15 14 14 10 7 10 10 10 9 10 12 12 12 11 11 10 8 6 7 8 7 8 11 11 9 9 9 9 4 2 5 7 7 11 8 15 14 8
14 16 12 13 10 13 10 8 14 8 10 10 14 11 11 9 9 10 9 10 12 13 12 13 11 10 11 8 6 5 5 5 5 10 11 9 8 8 8 7 7 8 8 7 9 8 8 11 10
13 11 10 10 5 6 9 8 11 8 10 13 9 12 10 9 9 10 11 11 13 14 13 13 13 11 10 7 6 6 6 7 6 8 11 9 7 9 8 6 9 8 8 9 8 7 9 10 9
12 10 9 8 11 9 7 12 14 12 11 10 10 9 10 8 9 8 10 12 13 14 14 13 11 9 8 8 7 6 6 6 6 7 10 8 9 8 9 8 9 9 10 10 9 9 8 10 9
10 11 11 12 10 10 11 16 11 10 10 10 11 9 9 8 7 8 9 11 11 12 13 11 11 9 8 7 6 6 5 5 6 6 8 9 9 9 10 9 9 10 10 10 9 10 9 9 8
13 9 7 10 10 9 13 12 11 11 10 11 11 8 9 7 7 9 9 9 10 11 11 11 7 8 7 7 7 5 6 6 6 6 8 10 10 10 11 8 9 10 9 11 10 10 9 9 9
11 16 11 10 9 8 10 12 12 11 10 10 10 9 8 6 6 8 7 6 8 9 9 8 8 7 6 7 6 6 6 5 6 6 7 11 10 11 11 8 9 10 8 9 10 11 10 9 9
20 7 7 12 8 2 10 14 17 13 13 11 11 11 10 8 6 6 3 6 6 7 7 8 7 8 7 5 5 5 5 6 5 6 8 10 10 12 10 8 8 12 8 10 11 11 12 11 9
5 12 9 7 11 6 6 9 15 15 12 10 10 11 9 10 9 8 4 4 6 5 7 8 7 8 5 5 2 4 3 4 4 6 7 10 10 11 10 9 9 11 8 9 9 12 11 11 11
7 7 5 7 5 7 6 3 14 16 13 9 9 9 10 8 11 9 7 5 6 4 6 7 7 6 5 6 7 6 6 4 5 6 7 9 10 11 10 9 9 10 9 9 10 10 12 8 9
4 5 13 4 3 7 4 9 13 17 15 14 13 10 10 9 11 10 8 6 4 4 4 6 6 6 6 5 4 3 4 4 4 4 4 8 10 10 10 10 10 11 10 12 10 10 8 9 9
7 10 9 9 2 10 10 15 12 13 13 14 13 13 10 10 11 13 10 7 7 5 4 5 5 5 5 5 4 5 1 4 6 6 7 7 8 9 9 10 10 10 8 9 9 10 9 9 9
20 7 5 3 9 1 3 6 14 12 12 12 12 11 12 11 8 9 11 10 7 5 5 5 4 3 6 4 4 4 6 5 4 6 7 6 7 8 10 10 8 9 9 9 6 7 8 5 7
9 6 7 6 12 8 11 8 11 11 11 14 13 13 11 10 11 11 12 11 9 8 7 6 3 3 4 3 4 6 6 6 6 6 6 5 4 5 9 9 9 9 9 6 6 7 5 3 4
2 7 8 12 19 5 4 6 7 7 4 5 14 14 10 11 11 9 8 9 9 8 7 6 4 4 2 2 1 3 5 6 6 7 6 7 5 5 9 9 8 9 10 9 5 5 6 7 4
8 15 5 4 5 5 5 3 9 9 3 6 5 15 15 13 9 10 10 11 8 9 5 6 5 3 3 0 1 3 4 5 7 5 7 8 6 6 8 7 7 7 8 9 6 6 6 7 7
7 8 9 14 12 11 27 1 8 8 5 4 5 6 14 15 12 10 11 9 11 9 7 6 7 4 5 1 1 2 4 6 7 7 6 7 6 6 6 6 7 7 8 8 9 6 6 6 7
3 7 9 9 14 5 3 8 15 6 3 1 6 8 10 10 8 11 11 10 7 9 8 6 4 4 4 3 2 2 2 4 5 3 6 5 5 7 7 6 6 7 8 9 11 7 7 5 6
9 11 10 7 9 10 7 10 6 7 8 4 4 7 9 7 9 9 7 11 8 9 8 6 6 6 6 6 5 3 2 3 4 5 2 5 6 7 7 7 7 7 6 3 8 7 8 6 6
7 11 9 19 6 10 13 9 8 5 6 3 2 7 8 10 12 11 10 12 10 9 9 8 7 6 7 6 5 4 4 4 4 6 5 3 5 5 8 6 7 8 8 4 4 8 7 7 7
10 14 8 7 12 14 12 11 6 2 4 5 2 5 7 8 7 8 10 12 11 10 8 8 6 5 5 5 6 5 5 5 5 6 7 4 6 5 5 7 7 8 8 6 4 6 7 6 7
Wind_Direction
221 224 235 260 242 70 64 55 41 74 70 68 54 67 62 46 24 65 85 89 75 79 129 116 112 103 95 78 28 348 338 345 344 343 343 342 339 338 340 339 333 327 324 322 319 318 318 321 324
257 245 245 302 102 85 73 78 78 87 94 103 108 97 72 58 79 119 94 74 77 99 74 74 100 77 41 310 324 334 331 337 338 341 337 336 335 335 339 337 334 327 321 314 311 310 311 311 312
260 261 266 216 73 71 81 83 88 94 104 108 84 53 48 81 53 79 91 129 133 160 130 96 104 192 255 276 281 300 315 320 320 326 332 330 330 333 337 340 337 330 325 317 310 307 305 304 301
271 235 264 73 77 83 96 107 126 122 95 100 111 86 85 42 76 78 70 32 25 34 98 97 100 263 261 293 291 286 306 319 327 314 335 333 341 348 357 354 351 343 335 328 321 316 312 307 300
234 266 75 96 81 70 68 64 91 99 98 86 90 98 89 86 93 90 69 29 30 35 54 79 95 103 157 251 339 353 341 325 349 10 12 22 22 11 8 8 6 358 350 342 335 334 324 310 301
283 355 191 86 94 97 73 54 67 89 99 110 111 94 96 113 98 81 70 49 40 34 29 52 125 128 137 94 53 26 32 53 40 26 26 31 39 34 28 30 14 8 2 356 354 344 340 332 318
287 273 66 57 67 100 73 62 63 65 68 39 123 109 113 97 84 73 57 64 36 16 23 31 358 129 110 87 75 64 65 63 59 52 46 51 79 65 50 26 19 360 354 347 345 342 335 326 318
296 6 93 117 29 90 84 92 68 99 80 60 62 238 96 89 114 88 62 39 32 30 17 12 10 9 254 105 94 96 95 96 94 76 1 260 197 50 50 41 21 354 350 338 335 331 328 317 301
277 24 73 52 157 85 93 85 62 87 81 67 67 73 91 111 48 46 45 56 29 27 26 19 8 358 358 41 120 154 125 135 126 61 7 316 5 3 333 66 16 353 353 344 343 319 307 290 271
284 52 57 46 52 78 104 102 122 109 103 96 91 83 93 96 78 61 39 39 40 29 21 16 19 359 3 24 33 49 63 68 36 21 359 6 349 10 316 2 109 342 3 340 331 304 293 268 343
18 58 76 62 39 77 73 126 109 89 105 135 100 110 91 88 73 63 68 46 34 40 25 20 32 22 7 42 15 24 43 25 36 38 359 12 353 360 356 355 0 354 14 7 350 352 358 345 340
82 68 74 77 72 70 66 132 81 90 88 81 101 101 106 92 86 54 50 51 38 36 27 34 35 27 34 4 29 34 48 4 28 21 15 7 1 355 353 1 344 351 355 351 349 344 348 337 325
96 95 105 100 80 70 122 96 103 107 109 112 112 133 109 109 108 97 76 55 41 34 28 30 37 30 25 25 14 32 3 37 5 30 27 10 352 359 345 349 347 352 344 348 342 341 339 329 332
122 134 132 124 120 117 115 119 132 131 133 144 155 137 133 114 111 94 65 57 57 34 28 29 31 32 27 37 20 2 17 21 23 37 25 12 355 5 343 348 350 356 340 341 343 348 330 325 331
129 139 128 143 120 131 137 172 116 144 181 157 161 153 137 136 101 73 65 58 36 63 33 10 36 47 21 22 352 38 21 26 20 20 47 358 9 4 332 356 355 357 333 338 349 340 336 334 329
153 300 157 134 155 140 234 139 144 168 184 170 171 154 166 138 120 105 95 79 62 48 45 34 12 25 55 7 28 27 24 14 24 15 24 358 6 9 330 8 7 337 343 360 354 350 347 336 329
278 190 99 135 184 128 257 134 159 183 207 176 190 163 174 180 140 126 144 103 77 70 41 37 47 33 9 53 359 21 40 24 23 21 21 5 5 7 342 16 3 329 7 15 358 347 339 328 346
304 357 81 85 133 218 239 113 157 186 202 193 209 167 186 192 176 157 174 105 98 78 58 46 33 34 18 13 16 40 63 23 31 43 21 11 4 10 1 1 1 341 7 17 1 338 344 319 358
340 328 25 75 94 263 255 267 166 188 197 213 209 177 207 196 139 162 186 151 138 102 67 41 48 37 11 33 16 12 3 30 9 31 18 11 4 11 10 357 0 354 352 29 10 348 345 357 1
287 311 52 136 136 245 144 249 176 189 198 203 204 219 199 188 158 169 187 183 174 108 65 56 35 38 22 39 24 3 350 348 334 31 29 25 6 12 9 359 7 350 331 27 8 356 348 337 12
38 6 5 356 198 232 277 218 189 190 197 207 214 193 227 180 181 171 190 195 180 154 109 81 53 52 40 4 31 356 306 258 16 350 31 9 15 13 13 6 22 338 341 14 356 5 13 350 357
82 341 307 278 274 166 275 325 174 189 204 208 216 216 209 201 183 170 169 187 195 171 138 130 75 28 88 23 41 347 330 3 351 348 30 343 28 16 9 8 15 9 338 36 358 3 346 9 341
17 318 287 283 265 276 178 294 144 172 190 209 214 216 212 211 179 197 169 178 181 154 174 130 128 97 70 68 1 325 9 346 356 358 337 350 38 33 17 9 0 10 355 46 33 347 351 330 337
27 260 4 298 329 123 313 17 77 122 9 247 184 196 177 216 182 176 149 152 167 156 173 138 151 128 87 0 6 349 338 348 340 6 316 346 358 12 37 2 3 10 356 16 22 355 354 1 4
261 295 240 212 243 159 84 215 33 32 46 312 210 178 180 198 210 167 171 158 169 164 186 165 163 168 129 170 306 352 337 301 294 336 9 308 347 11 24 355 4 3 4 358 350 30 350 9 348
218 330 357 315 337 343 16 354 89 57 37 328 280 205 183 190 206 183 166 151 176 167 181 183 160 212 166 182 69 355 345 330 294 33 346 322 336 2 1 347 352 356 4 4 343 32 10 359 338
173 282 357 306 303 266 167 348 109 146 136 279 242 242 194 192 197 191 175 156 171 160 174 197 191 160 186 193 218 254 305 322 342 326 309 326 336 331 6 334 335 338 355 1 340 6 13 346 334
269 335 289 208 303 340 301 39 319 45 47 94 239 223 228 178 213 194 195 150 174 170 165 188 187 189 198 209 204 226 304 273 322 301 270 314 313 317 324 321 320 318 336 346 348 339 340 354 346
167 272 44 293 298 316 339 337 79 17 63 41 225 191 214 202 213 176 196 154 184 178 186 182 197 206 198 210 225 227 264 289 297 309 313 303 305 293 313 319 308 306 307 333 331 315 287 332 321
292 282 266 328 328 331 297 299 178 264 121 124 272 199 213 208 206 183 177 160 185 185 201 172 214 248 216 202 219 225 245 270 281 292 303 261 269 272 297 301 302 295 302 315 303 303 308 310 321